SCP
0 0 0 0 0 0 0 0 0 0 0 0 0 0 0 0 0 0 0 0 0 0 0 0 0 0 0 0 0 0 0 0 0 0 0 0 0 0 0 0 0 0 0 0
0 0 0 0 0 0 0 0 0 0 0 0 0 0 0 0 0 0 0 0 0 0 0 0 0 0 0 0 0 0 0 0 0 0 0 0 0 0 0 0 0 0 0 0
0 0 0 0 0 0 0 0 0 0 0 0 0 0 0 0 0 0 0 0 0 0 0 0 0 0 0 0 0 0 0 0 0 0 0 0 0 0 0 0 0 0 0 0
0 0 0 0 0 0 0 0 0 0 0 0 0 0 0 0 0 0 0 0 0 0 0 0 0 0 0 0 0 0 0 0 0 0 0 0 0 0 0 0 0 0 0 0
0 0 0 0 0 0 0 0 0 0 0 0 0 0 0 0 0 0 0 0 0 0 0 0 0 0 0 0 0 0 0 0 0 0 0 0 0 0 0 0 0 0 0 0
0 0 0 0 0 0 0 0 0 0 0 0 0 0 0 0 0 0 0 0 0 0 0 0 0 0 0 0 0 0 0 0 0 0 0 0 0 0 0 0 0 0 0 0
0 0 0 0 0 0 0 0 0 0 0 0 0 0 0 0 0 0 0 0 0 0 0 0 0 0 0 0 0 0 0 0 0 0 0 0 0 0 0 0 0 0 0 0
0 0 0 0 0 0 0 0 0 0 0 0 0 0 0 0 0 0 0 0 0 0 0 0 0 0 0 0 0 0 0 0 0 0 0 0 0 0 0 0 0 0 0 0
0 0 0 0 0 0 0 0 0 0 0 0 0 0 0 0 0 0 0 0 0 0 0 0 0 0 0 0 0 0 0 0 0 0 0 0 0 0 0 0 0 0 0 0
0 0 0 0 0 0 0 0 0 0 0 0 0 0 0 0 0 0 0 0 0 0 0 0 0 0 0 0 0 0 0 0 0 0 0 0 0 0 0 0 0 0 0 0
0 0 0 0 0 0 0 0 0 0 0 0 0 0 0 0 0 0 0 0 0 0 0 0 0 0 0 0 0 0 0 0 0 0 0 0 0 0 0 0 0 0 0 0
0 0 0 0 0 0 0 0 0 0 0 0 0 0 0 0 0 0 0 0 0 0 0 0 0 0 0 0 0 0 0 0 0 0 0 0 0 0 0 0 0 0 0 0
0 0 0 0 0 0 0 0 0 0 0 0 0 0 0 0 0 0 0 0 0 0 0 0 0 0 0 0 0 0 0 0 0 0 0 0 0 0 0 0 0 0 0 0
0 0 0 0 0 0 0 0 0 0 0 0 0 0 0 0 0 0 0 0 0 0 0 0 0 0 0 0 0 0 0 0 0 0 0 0 0 0 0 0 0 0 0 0
0 0 0 0 0 0 0 0 0 0 0 0 0 0 0 0 0 0 0 0 0 0 0 0 0 0 0 0 0 0 0 0 0 0 0 0 0 0 0 0 0 0 0 0
0 0 0 0 0 0 0 0 0 0 0 0 0 0 0 0 0 0 0 0 0 0 0 0 0 0 0 0 0 0 0 0 0 0 0 0 0 0 0 0 0 0 0 0
0 0 0 0 0 0 0 0 0 0 0 0 0 0 0 0 0 0 0 0 0 0 0 0 0 0 0 0 0 0 0 0 0 0 0 0 0 0 0 0 0 0 0 0
0 0 0 0 0 0 0 0 0 0 0 0 0 0 0 0 0 0 0 0 0 0 0 0 0 0 0 0 0 0 0 0 0 0 0 0 0 0 0 0 0 0 0 0
0 0 0 0 0 0 0 0 0 0 0 0 0 0 0 0 0 0 0 0 0 0 0 0 0 0 0 0 0 0 0 0 0 0 0 0 0 0 0 0 0 0 0 0
0 0 0 0 0 0 0 0 0 0 0 0 0 0 0 0 0 0 0 0 0 0 0 0 0 0 0 0 0 0 0 0 0 0 0 0 0 0 0 0 0 0 0 0
0 0 0 0 0 0 0 0 0 0 0 0 0 0 0 0 0 0 0 0 0 0 0 0 0 0 0 0 0 0 0 0 0 0 0 0 0 0 0 0 0 0 0 0
0 0 0 0 0 0 0 0 0 0 0 0 0 0 0 0 0 0 0 0 0 0 0 0 0 0 0 0 0 0 0 0 0 0 0 0 0 0 0 0 0 0 0 0
0 0 0 0 0 0 0 0 0 0 0 0 0 0 0 0 0 0 0 0 0 0 0 0 0 0 0 0 0 0 0 0 0 0 0 0 0 0 0 0 0 0 0 0
0 0 0 0 0 0 0 0 0 0 0 0 0 0 0 0 0 0 0 0 0 0 0 0 0 0 0 0 0 0 0 0 0 0 0 0 0 0 0 0 0 0 0 0
0 0 0 0 0 0 0 0 0 0 0 0 0 0 0 0 0 0 0 0 0 0 0 0 0 0 0 0 0 0 0 0 0 0 0 0 0 0 0 0 0 0 0 0
0 0 0 0 0 0 0 0 0 0 0 0 0 0 0 0 0 0 0 0 0 0 0 0 0 0 0 0 0 0 0 0 0 0 0 0 0 0 0 0 0 0 0 0
0 0 0 0 0 0 0 0 0 0 0 0 0 0 0 0 0 0 0 0 0 0 0 0 0 0 0 0 0 0 0 0 0 0 0 0 0 0 0 0 0 0 0 0
Wind_Speed
8 7 5 7 8 6 8 9 10 11 11 13 8 7 6 6 6 6 6 5 5 5 5 4 4 4 4 4 4 3 2 3 3 3 3 2 2 3 3 3 4 4 4 4
6 5 6 8 10 9 10 9 10 11 15 10 8 6 6 6 6 6 7 6 6 5 5 5 5 5 5 5 4 3 2 3 3 3 3 2 2 2 2 3 3 3 4 4
6 4 4 9 8 8 6 7 7 11 11 6 7 7 7 6 6 6 7 6 6 6 5 5 5 5 5 4 4 3 3 3 3 3 3 3 2 2 3 3 3 4 4 4
3 3 7 7 1 4 6 7 7 8 7 6 7 8 7 5 5 6 6 6 6 6 6 5 4 4 4 3 3 3 3 3 3 3 3 2 2 3 3 2 3 3 3 4
2 4 10 7 2 3 4 8 6 8 8 6 6 6 5 4 3 5 5 5 5 5 5 4 4 4 3 3 3 3 3 3 3 3 3 2 3 3 2 2 3 3 3 3
2 3 9 6 1 2 1 7 3 4 6 4 2 4 6 4 4 5 5 4 4 4 4 4 4 3 2 3 3 3 4 4 3 3 3 3 3 3 2 2 3 3 3 3
5 6 11 5 1 2 2 7 3 2 4 3 4 6 5 5 5 4 4 4 4 3 3 4 3 3 3 3 4 5 4 4 3 3 3 3 3 2 2 2 2 2 3 3
4 5 11 2 4 6 7 3 3 3 3 4 6 6 5 5 5 5 5 5 4 3 4 4 3 2 3 4 5 4 4 3 3 3 3 2 2 2 2 2 2 3 3 3
10 10 4 4 5 4 2 3 4 3 4 3 4 6 6 5 5 5 5 4 4 3 4 4 3 2 3 5 4 4 4 4 3 3 3 2 2 2 2 2 2 2 3 3
6 9 6 6 5 4 3 4 4 3 3 3 5 6 6 5 4 4 5 4 3 3 4 4 4 4 4 4 3 3 3 3 3 3 3 2 1 2 2 2 2 3 3 3
8 8 6 6 6 6 5 4 4 4 4 4 4 5 5 5 5 5 5 4 3 3 4 5 4 4 4 4 3 3 3 3 3 3 2 2 1 1 2 3 4 4 3 3
9 6 5 7 5 4 5 5 5 4 4 4 3 5 5 5 4 4 4 4 4 4 4 5 4 5 4 3 3 2 2 2 2 2 2 2 2 2 4 4 5 5 5 5
8 4 5 6 5 4 4 5 4 4 4 5 4 4 4 4 4 4 4 4 4 4 4 4 4 5 4 3 3 2 2 2 2 2 2 2 2 2 3 3 4 5 5 6
5 3 5 5 5 4 4 4 3 3 3 3 4 3 3 3 4 4 5 5 4 4 4 4 4 5 5 3 2 2 2 3 2 2 2 2 2 2 2 2 3 3 5 6
5 5 6 5 4 3 3 2 2 3 3 3 3 3 3 4 5 5 5 4 3 3 3 3 4 5 4 3 3 2 2 2 2 1 1 2 2 2 2 2 2 3 3 4
4 3 3 4 5 5 4 3 4 5 4 4 4 4 4 4 5 4 4 3 3 4 4 4 4 5 4 3 3 2 2 3 2 1 1 1 1 1 1 2 2 2 3 3
3 4 5 6 6 6 5 5 5 5 4 4 5 4 4 3 4 4 4 3 3 4 4 4 4 4 3 3 2 2 1 2 3 2 1 1 1 1 1 1 2 2 2 3
5 6 6 5 5 6 6 5 4 4 4 5 4 3 3 3 4 4 4 4 3 4 4 4 3 3 3 3 2 1 1 1 1 1 1 1 1 1 1 1 2 2 2 3
3 4 4 4 4 4 4 4 4 4 3 3 3 3 4 3 3 3 3 2 3 4 5 4 5 3 2 3 2 1 1 1 1 1 1 2 2 1 1 2 2 2 2 2
2 2 2 3 3 2 3 3 2 2 2 2 2 3 3 3 3 3 2 3 3 4 4 4 3 2 2 3 3 1 1 1 1 1 1 1 1 1 2 2 2 2 2 2
2 2 2 2 3 3 2 2 2 3 3 2 2 3 4 4 3 2 2 4 4 3 3 4 3 2 2 2 2 1 1 1 1 1 1 1 1 1 2 1 1 2 1 1
2 2 2 2 2 3 3 2 2 2 2 2 2 2 2 3 3 3 3 3 3 5 3 2 2 3 4 2 1 0 0 1 1 1 1 1 1 1 2 1 1 2 2 2
2 2 2 2 2 3 3 2 2 2 2 3 3 3 3 3 2 2 4 3 2 4 3 2 4 5 5 2 1 0 1 1 1 1 1 1 1 1 2 2 2 2 2 2
2 2 2 2 1 1 3 3 2 2 2 3 2 2 2 2 2 2 2 4 5 5 3 4 6 5 5 1 1 1 1 1 1 1 1 1 1 1 1 2 2 2 2 2
2 2 1 1 2 2 3 2 2 2 2 2 2 2 2 2 2 2 2 2 4 4 2 4 6 6 3 1 1 1 1 1 2 1 1 1 2 1 2 2 2 2 2 3
2 2 2 2 2 2 2 1 1 1 1 2 3 2 2 1 1 1 1 2 3 4 3 2 2 3 2 2 2 2 2 2 2 2 2 2 2 2 2 2 3 2 3 3
1 1 1 1 1 1 1 1 2 2 2 2 2 2 2 1 1 1 2 2 2 2 2 2 2 2 2 2 2 2 2 2 2 2 2 2 2 2 2 3 3 3 3 3
Wind_Direction
256 269 259 251 250 234 224 224 231 252 254 272 283 284 292 295 302 307 309 311 310 308 309 309 309 303 299 299 301 294 279 270 266 265 258 244 235 228 217 214 222 217 216 219
276 273 264 268 262 243 242 241 247 264 272 275 284 289 295 295 299 300 302 304 305 307 307 305 302 301 303 306 308 306 284 276 279 275 263 250 243 231 221 220 222 217 218 222
276 302 323 279 250 215 223 222 214 239 256 287 295 290 284 282 286 284 292 299 301 302 297 295 296 299 297 300 310 306 288 285 283 273 263 256 249 232 229 226 227 228 224 225
287 344 257 249 200 198 225 245 232 247 266 273 276 290 283 268 272 285 294 298 299 302 303 302 302 307 307 312 311 302 295 290 286 278 270 265 251 244 242 239 237 238 240 236
225 264 276 288 258 190 221 267 229 236 263 283 305 315 291 276 270 272 282 289 292 295 299 307 311 316 322 320 315 308 300 295 288 274 268 265 258 253 245 238 246 247 248 241
185 239 258 266 267 239 175 278 261 221 255 280 335 308 288 317 312 300 301 301 302 308 316 316 319 329 328 318 316 303 297 294 292 285 269 261 260 261 257 244 245 250 261 253
213 240 264 263 251 111 193 265 305 240 253 245 235 246 284 317 318 312 308 309 314 317 318 316 326 338 326 318 304 302 306 304 300 291 277 268 264 258 253 253 250 250 260 263
184 220 255 213 139 189 232 288 292 281 266 250 260 281 295 303 308 315 317 320 325 325 321 325 335 335 317 306 307 313 312 309 303 295 284 271 253 258 251 236 238 249 256 265
201 221 255 185 211 240 271 276 280 283 283 270 276 284 292 298 300 304 306 310 316 313 315 321 327 322 303 306 316 318 316 309 307 306 296 282 252 249 254 237 231 242 246 255
252 261 258 255 266 277 267 267 281 278 278 267 272 281 285 291 298 301 303 304 310 312 309 310 316 314 299 306 315 319 315 314 317 316 306 291 267 250 241 234 235 241 245 255
254 270 292 268 250 257 270 278 285 288 276 264 270 280 281 286 292 294 298 305 306 297 295 299 309 310 310 315 316 316 314 315 319 319 319 315 298 265 264 246 240 245 244 244
243 241 233 265 274 265 267 275 275 281 294 297 274 275 283 284 288 291 294 301 304 300 299 301 306 305 309 310 306 306 314 319 316 315 317 316 313 318 313 306 299 290 287 278
246 261 251 270 285 280 268 275 275 267 270 288 292 277 279 286 293 297 297 296 291 291 293 299 303 305 307 307 301 287 288 300 303 312 318 316 311 307 312 321 323 317 308 299
244 253 269 270 276 283 279 282 283 284 279 279 285 291 288 289 297 298 291 288 290 291 295 298 302 303 306 308 298 288 291 297 304 297 297 298 297 299 303 310 317 319 319 316
247 239 248 271 286 293 294 298 298 293 297 301 296 292 290 288 289 290 293 302 307 304 300 302 303 303 310 309 300 284 287 285 281 284 286 289 294 298 301 302 305 311 320 317
260 267 257 262 270 276 281 277 272 278 286 288 290 285 280 277 283 292 298 302 297 294 296 297 295 301 308 307 303 295 281 296 307 298 296 303 304 305 307 309 311 314 313 313
234 260 263 270 270 272 266 259 258 267 273 272 275 284 292 296 301 303 304 300 285 281 286 288 292 302 305 299 291 291 294 297 315 319 299 290 295 302 304 310 314 316 316 325
235 244 248 253 258 265 269 265 261 263 261 266 276 283 283 281 283 290 301 311 313 305 300 293 295 304 303 303 296 291 296 302 302 297 302 306 309 307 313 312 312 312 319 332
256 259 263 262 261 257 258 260 262 264 269 270 267 268 269 272 277 285 299 308 305 303 309 311 322 328 310 304 317 296 294 297 303 305 311 318 330 327 320 316 317 319 326 334
285 285 284 288 287 268 264 267 267 270 272 264 267 279 287 289 287 288 289 280 273 278 293 310 314 302 298 294 312 295 284 284 294 305 312 308 309 315 317 318 320 324 326 326
286 298 300 296 297 293 275 261 252 264 273 254 245 258 271 284 285 279 282 290 296 296 299 317 321 302 296 297 303 306 300 296 293 287 289 292 301 309 311 313 314 313 313 316
279 284 287 292 296 301 300 283 259 261 270 269 265 265 275 287 294 290 268 263 283 308 325 304 301 306 316 324 319 319 298 289 292 293 288 286 289 294 298 303 303 306 306 306
264 269 279 282 280 290 307 300 279 264 265 265 263 262 264 270 269 273 291 291 286 305 323 301 308 321 333 2 10 354 312 302 301 298 292 287 282 279 283 291 293 297 298 299
271 276 281 291 301 304 302 300 296 282 274 273 267 258 256 275 288 270 265 295 310 317 321 311 325 332 349 20 0 328 304 293 288 286 286 283 276 272 275 281 286 290 291 291
266 270 269 266 270 274 279 294 308 303 302 303 301 291 274 255 261 287 295 293 307 327 329 323 331 342 359 343 322 307 299 283 269 269 267 272 273 275 278 279 277 281 284 285
254 259 257 251 255 265 272 271 281 292 301 310 314 310 304 298 282 291 308 312 312 327 336 328 325 330 328 317 306 297 293 301 313 309 284 277 276 276 278 280 282 277 276 276
279 274 274 282 277 262 259 254 260 272 273 276 294 300 304 318 322 317 317 320 321 327 325 323 323 319 314 312 310 305 299 296 291 287 284 279 277 275 277 275 275 275 275 275